K3TE Weather Reports


time (UTC)temp
C
wind
direction
speed
KPH
gust
KPH
rain 1hr
cm
rain 24hr
cm
rain mn
cm
humidity
%
barometer
mb
20260510030111 9 0 0.0 1.6 0.00 0.69 0.69 96 1012.0
20260510024601 9 0 0.0 0.0 0.00 0.69 0.69 95 1012.1
20260510023057 9 0 0.0 0.0 0.00 0.69 0.69 95 1012.1
20260510021604 10 0 0.0 0.0 0.00 0.69 0.69 95 1012.0
20260510020058 10 0 0.0 0.0 0.00 0.69 0.69 95 1011.9
20260510014602 10 0 0.0 0.0 0.00 0.69 0.69 95 1011.7
20260510013132 10 0 0.0 0.0 0.00 0.69 0.69 95 1011.8
20260510011558 9 0 0.0 1.6 0.00 0.69 0.69 94 1011.7
20260510010100 10 0 0.0 0.0 0.00 0.69 0.69 93 1011.6
20260510004604 10 0 0.0 0.0 0.00 0.69 0.69 93 1011.4
20260510003108 10 0 0.0 0.0 0.00 0.69 0.69 92 1011.3
20260510001603 10 0 0.0 0.0 0.00 0.69 0.69 92 1011.2
20260510000127 11 0 0.0 0.0 0.00 0.69 0.69 91 1011.1
20260509234602 11 0 0.0 0.0 0.00 0.69 0.69 90 1010.9
20260509233058 11 0 0.0 0.0 0.00 0.69 0.69 90 1010.8
20260509231625 11 0 0.0 1.6 0.00 0.69 0.69 89 1010.7
20260509230105 11 158 0.0 3.2 0.00 0.69 0.69 88 1010.7
20260509224601 11 0 0.0 6.4 0.00 0.69 0.69 89 1010.9
20260509223105 12 0 0.0 8.0 0.00 0.69 0.69 90 1010.9
20260509221623 12 193 1.6 9.7 0.00 0.69 0.69 90 1010.9
20260509214604 12 0 0.0 3.2 0.00 0.69 0.69 91 1010.9
20260509213101 12 0 0.0 8.0 0.00 0.69 0.69 92 1011.1
20260509211602 12 152 3.2 6.4 0.00 0.69 0.69 93 1011.0
20260509210100 12 65 0.0 6.4 0.00 0.69 0.69 92 1011.0
20260509204603 12 175 1.6 9.7 0.00 0.71 0.69 95 1011.2
20260509203100 11 216 1.6 6.4 0.00 0.71 0.69 94 1011.3
20260509201559 11 133 1.6 6.4 0.00 0.71 0.69 94 1011.4
20260509200110 11 0 1.6 4.8 0.00 0.71 0.69 95 1011.5
20260509194558 11 0 0.0 11.3 0.00 0.71 0.69 95 1011.8
20260509193058 11 0 0.0 0.0 0.03 0.71 0.69 95 1011.8
20260509191604 11 0 0.0 8.0 0.05 0.71 0.69 96 1011.8
20260509190100 10 0 3.2 9.7 0.05 0.71 0.69 95 1012.1
20260509184603 10 189 1.6 4.8 0.08 0.71 0.69 95 1012.3
20260509183109 10 0 0.0 4.8 0.10 0.69 0.66 95 1012.4
20260509181600 10 0 0.0 0.0 0.15 0.66 0.64 95 1012.4
20260509180104 10 0 0.0 1.6 0.23 0.66 0.64 95 1012.4
20260509174603 10 0 0.0 6.4 0.28 0.64 0.61 95 1012.5
20260509173104 10 0 0.0 4.8 0.36 0.58 0.56 95 1012.5
20260509171559 10 0 0.0 3.2 0.36 0.51 0.48 95 1012.7
20260509170100 10 0 1.6 4.8 0.33 0.43 0.41 95 1012.7
20260509164558 10 0 1.6 9.7 0.28 0.36 0.33 94 1012.8
20260509163105 10 183 0.0 3.2 0.18 0.23 0.20 93 1012.9
20260509161603 10 227 1.6 6.4 0.10 0.15 0.13 92 1013.2
20260509160059 10 158 3.2 9.7 0.05 0.10 0.08 90 1013.1
20260509154603 11 185 1.6 4.8 0.03 0.08 0.05 91 1013.1
20260509153101 11 148 1.6 11.3 0.03 0.05 0.03 90 1013.2
20260509151605 11 229 4.8 11.3 0.03 0.05 0.03 89 1013.2
20260509150104 11 162 1.6 4.8 0.03 0.05 0.03 90 1013.3
20260509144559 10 0 0.0 1.6 0.03 0.05 0.03 90 1013.1
20260509143103 10 139 1.6 4.8 0.00 0.03 0.00 87 1012.6
20260509141602 10 0 0.0 3.2 0.00 0.03 0.00 91 1012.6
20260509140107 10 331 1.6 4.8 0.00 0.03 0.00 91 1012.8
20260509134612 10 165 0.0 3.2 0.00 0.03 0.00 88 1012.9
20260509133107 10 155 1.6 3.2 0.00 0.03 0.00 90 1013.0
20260509131611 10 0 1.6 3.2 0.00 0.03 0.00 90 1012.8
20260509130109 10 0 0.0 3.2 0.00 0.03 0.00 90 1012.2
20260509124558 10 333 1.6 4.8 0.00 0.03 0.00 89 1012.3
20260509123138 10 0 0.0 4.8 0.00 0.03 0.00 84 1012.5
20260509121601 10 0 0.0 3.2 0.00 0.03 0.00 84 1012.7
20260509120058 9 159 1.6 4.8 0.00 0.03 0.00 84 1012.7
20260509114558 8 0 1.6 4.8 0.00 0.03 0.00 86 1012.8
20260509113107 8 0 0.0 3.2 0.00 0.03 0.00 89 1012.8
20260509111600 8 322 1.6 6.4 0.00 0.03 0.00 90 1012.4
20260509110100 8 0 4.8 9.7 0.00 0.03 0.00 89 1012.2
20260509104600 8 316 0.0 3.2 0.00 0.03 0.00 89 1012.3
20260509103104 8 0 1.6 4.8 0.00 0.03 0.00 87 1012.5
20260509101603 8 0 0.0 4.8 0.00 0.03 0.00 87 1012.3
20260509100101 8 317 3.2 6.4 0.00 0.03 0.00 87 1011.9
20260509094600 8 310 0.0 4.8 0.00 0.03 0.00 88 1012.1
20260509093057 8 336 1.6 3.2 0.00 0.03 0.00 86 1012.3
20260509091604 8 354 1.6 3.2 0.00 0.03 0.00 84 1012.4
20260509090105 8 0 0.0 3.2 0.00 0.03 0.00 84 1012.4
20260509084602 8 0 0.0 1.6 0.00 0.03 0.00 83 1012.8
20260509083102 8 0 0.0 3.2 0.00 0.03 0.00 84 1012.7
20260509081559 8 0 0.0 3.2 0.00 0.03 0.00 85 1012.9
20260509080101 8 0 0.0 3.2 0.00 0.03 0.00 87 1013.1
20260509074610 8 335 1.6 3.2 0.00 0.03 0.00 87 1013.2
20260509073100 8 335 1.6 4.8 0.00 0.03 0.00 88 1013.3
20260509071619 8 335 1.6 4.8 0.00 0.03 0.00 86 1013.2
20260509070100 8 334 1.6 4.8 0.00 0.03 0.00 83 1013.2
20260509064606 9 180 0.0 1.6 0.00 0.03 0.00 83 1013.4
20260509063100 9 0 0.0 0.0 0.00 0.03 0.00 85 1013.5
20260509061606 9 0 0.0 0.0 0.00 0.03 0.00 84 1013.7
20260509060110 9 0 0.0 4.8 0.00 0.03 0.00 84 1013.7
20260509054611 9 0 0.0 1.6 0.00 0.03 0.00 84 1013.5
20260509053103 9 0 0.0 1.6 0.00 0.03 0.00 84 1013.4
20260509051606 9 313 1.6 4.8 0.00 0.03 0.00 84 1013.7
20260509050208 10 337 1.6 3.2 0.00 0.03 0.00 82 1013.8
20260509044558 10 0 0.0 1.6 0.00 0.03 0.00 81 1014.3
20260509043103 10 0 0.0 3.2 0.00 0.03 0.00 78 1014.1
20260509041559 10 176 1.6 6.4 0.00 0.03 0.00 78 1014.0
20260509040101 10 178 4.8 11.3 0.00 0.03 0.00 78 1014.1
20260509034558 10 0 0.0 0.0 0.00 0.03 0.03 76 1013.6
20260509033100 10 0 0.0 0.0 0.00 0.03 0.03 75 1013.9
20260509031623 10 0 0.0 0.0 0.00 0.03 0.03 75 1013.9